N8XSF-1 Weather Reports


time (UTC)temp
C
wind
direction
speed
KPH
gust
KPH
rain 1hr
cm
rain 24hr
cm
rain mn
cm
humidity
%
barometer
mb
20260502233834 8 263 4.8 12.9 0.00 0.03 0.00 47 1014.0
20260502233349 8 258 6.4 12.9 0.00 0.03 0.00 46 1014.0
20260502232820 8 286 0.0 9.7 0.00 0.03 0.00 48 1014.0
20260502232318 8 286 0.0 14.5 0.00 0.03 0.00 47 1014.0
20260502231824 8 292 3.2 22.5 0.00 0.03 0.00 47 1014.1
20260502231339 8 257 9.7 22.5 0.00 0.03 0.00 46 1014.1
20260502230815 8 258 8.0 16.1 0.00 0.03 0.00 46 1014.1
20260502230341 8 251 4.8 16.1 0.00 0.03 0.00 46 1014.0
20260502225833 8 261 4.8 19.3 0.00 0.03 0.00 46 1014.0
20260502225344 9 257 3.2 14.5 0.00 0.03 0.00 46 1014.0
20260502224814 9 282 0.0 8.0 0.00 0.03 0.00 47 1014.1
20260502224329 9 283 0.0 11.3 0.00 0.03 0.00 47 1014.1
20260502223819 8 283 0.0 11.3 0.00 0.03 0.00 46 1014.1
20260502223329 8 294 1.6 14.5 0.00 0.03 0.00 47 1014.1
20260502222818 8 281 3.2 12.9 0.00 0.03 0.00 47 1014.1
20260502222314 8 283 3.2 12.9 0.00 0.03 0.00 47 1014.1
20260502221828 8 270 3.2 17.7 0.00 0.03 0.00 48 1014.2
20260502221348 8 273 11.3 17.7 0.00 0.03 0.00 46 1014.2
20260502220825 8 271 3.2 16.1 0.00 0.03 0.00 46 1014.2
20260502220329 8 247 3.2 16.1 0.00 0.03 0.00 47 1014.1
20260502215823 8 304 1.6 12.9 0.00 0.03 0.00 47 1014.1
20260502215313 8 297 3.2 11.3 0.00 0.03 0.00 46 1014.1
20260502214821 8 276 0.0 11.3 0.00 0.03 0.00 47 1014.1
20260502214332 8 281 0.0 12.9 0.00 0.03 0.00 48 1014.1
20260502213821 8 281 1.6 19.3 0.00 0.03 0.00 46 1014.1
20260502213359 8 242 12.9 19.3 0.00 0.03 0.00 45 1014.1
20260502212843 8 264 4.8 14.5 0.00 0.03 0.00 48 1014.1
20260502212329 8 304 0.0 16.1 0.00 0.03 0.00 46 1014.1
20260502211821 8 291 4.8 17.7 0.00 0.03 0.00 45 1014.1
20260502211328 8 281 4.8 14.5 0.00 0.03 0.00 46 1014.1
20260502210826 8 305 1.6 14.5 0.00 0.03 0.00 45 1014.1
20260502210315 8 290 3.2 17.7 0.00 0.03 0.00 47 1014.2
20260502205827 8 268 8.0 17.7 0.00 0.03 0.00 47 1014.2
20260502205317 8 270 1.6 16.1 0.00 0.03 0.00 47 1014.2
20260502204833 8 267 8.0 16.1 0.00 0.03 0.00 47 1014.2
20260502204324 8 257 3.2 16.1 0.00 0.03 0.00 48 1014.2
20260502203837 8 266 6.4 12.9 0.00 0.03 0.00 48 1014.2
20260502203331 8 272 1.6 16.1 0.00 0.03 0.00 48 1014.4
20260502202819 8 271 3.2 17.7 0.00 0.03 0.00 46 1014.4
20260502202349 8 269 6.4 17.7 0.00 0.03 0.00 45 1014.4
20260502201816 9 261 3.2 20.9 0.00 0.03 0.00 45 1014.5
20260502201340 9 244 11.3 25.7 0.00 0.03 0.00 45 1014.5
20260502200825 9 257 14.5 25.7 0.00 0.03 0.00 46 1014.5
20260502200334 8 269 8.0 16.1 0.00 0.03 0.00 47 1014.6
20260502195820 8 277 8.0 16.1 0.00 0.03 0.00 46 1014.6
20260502195323 8 281 4.8 12.9 0.00 0.03 0.00 46 1014.6
20260502194831 8 298 4.8 12.9 0.00 0.03 0.00 46 1014.7
20260502194326 8 293 3.2 17.7 0.00 0.03 0.00 47 1014.7
20260502193832 8 252 8.0 17.7 0.00 0.03 0.00 46 1014.7
20260502193337 8 298 3.2 14.5 0.00 0.03 0.00 47 1014.9
20260502192831 8 272 3.2 11.3 0.00 0.03 0.00 50 1014.9
20260502192327 8 271 1.6 14.5 0.00 0.03 0.00 48 1014.9
20260502191851 8 271 4.8 14.5 0.00 0.03 0.00 48 1015.0
20260502191339 8 242 3.2 9.7 0.00 0.03 0.00 48 1015.0
20260502190832 8 238 3.2 12.9 0.00 0.03 0.00 49 1015.0
20260502190320 8 238 6.4 12.9 0.00 0.03 0.00 48 1015.0
20260502185824 8 286 4.8 17.7 0.00 0.03 0.00 47 1015.0
20260502185312 8 261 8.0 17.7 0.00 0.03 0.00 47 1015.0
20260502184822 8 228 6.4 19.3 0.00 0.03 0.00 50 1015.1
20260502184345 8 233 12.9 17.7 0.00 0.03 0.00 49 1015.1
20260502183850 8 284 4.8 17.7 0.00 0.03 0.00 50 1015.1
20260502183345 8 272 6.4 16.1 0.00 0.03 0.00 51 1015.3
20260502182843 8 253 1.6 14.5 0.00 0.03 0.00 50 1015.3
20260502182315 8 279 4.8 17.7 0.00 0.03 0.00 49 1015.3
20260502181832 8 264 8.0 17.7 0.00 0.03 0.00 51 1015.4
20260502181345 8 311 3.2 11.3 0.00 0.03 0.00 48 1015.4
20260502180858 8 262 3.2 14.5 0.00 0.03 0.00 51 1015.4
20260502180330 8 234 6.4 20.9 0.00 0.03 0.00 51 1015.5
20260502170324 7 257 9.7 17.7 0.00 0.03 0.00 53 1015.8
20260502164330 7 273 0.0 9.7 0.00 0.03 0.00 54 1016.0
20260502163815 7 273 0.0 11.3 0.00 0.03 0.00 55 1016.0
20260502163322 7 268 3.2 11.3 0.00 0.03 0.00 55 1016.0
20260502162842 7 258 0.0 12.9 0.00 0.03 0.00 58 1016.0
20260502162326 7 258 3.2 17.7 0.00 0.03 0.00 58 1016.0
20260502161815 7 259 6.4 17.7 0.00 0.03 0.00 57 1016.0
20260502161319 7 309 4.8 14.5 0.00 0.03 0.00 57 1016.0
20260502160826 7 262 1.6 12.9 0.00 0.03 0.00 56 1016.0
20260502160318 7 248 0.0 8.0 0.00 0.03 0.00 55 1015.9
20260502151834 7 272 0.0 8.0 0.00 0.03 0.00 57 1015.8
20260502151325 7 271 0.0 19.3 0.00 0.03 0.00 60 1015.8
20260502150836 7 278 3.2 12.9 0.00 0.03 0.00 57 1015.8
20260502150321 7 278 0.0 12.9 0.00 0.05 0.00 60 1015.6
20260502130317 5 271 1.6 11.3 0.00 0.08 0.00 73 1015.4
20260502123813 4 265 4.8 9.7 0.00 0.08 0.00 82 1015.5
20260502123331 4 265 1.6 8.0 0.00 0.08 0.00 82 1015.5
20260502122820 3 265 0.0 6.4 0.00 0.08 0.00 82 1015.5
20260502122324 3 265 1.6 6.4 0.00 0.08 0.00 83 1015.5
20260502121833 3 265 1.6 6.4 0.00 0.08 0.00 83 1015.4
20260502121324 3 265 0.0 3.2 0.00 0.08 0.00 83 1015.4
20260502120818 3 265 0.0 3.2 0.00 0.08 0.00 83 1015.4
20260502120325 3 265 0.0 0.0 0.00 0.08 0.00 83 1015.3
20260502115815 2 265 0.0 0.0 0.00 0.08 0.00 83 1015.3
20260502115329 2 265 0.0 0.0 0.00 0.08 0.00 83 1015.3
20260502114820 2 265 0.0 0.0 0.00 0.08 0.00 83 1015.3
20260502114403 2 265 0.0 0.0 0.00 0.08 0.00 83 1015.3
20260502113826 3 265 0.0 0.0 0.00 0.08 0.00 83 1015.3
20260502113310 3 265 0.0 0.0 0.00 0.08 0.00 83 1015.1
20260502112837 3 265 0.0 0.0 0.00 0.08 0.00 82 1015.1
20260502112330 3 265 0.0 0.0 0.00 0.08 0.00 82 1015.1
20260502111836 3 265 0.0 0.0 0.00 0.08 0.00 82 1015.0
20260502111324 3 265 0.0 0.0 0.00 0.08 0.00 82 1015.0
20260502110814 3 265 0.0 0.0 0.00 0.08 0.00 81 1015.0
20260502110321 3 265 0.0 0.0 0.00 0.23 0.00 81 1014.8
20260502105815 3 265 0.0 0.0 0.00 0.23 0.00 81 1014.8
20260502105326 3 265 0.0 0.0 0.00 0.23 0.00 81 1014.8
20260502104820 3 265 0.0 0.0 0.00 0.23 0.00 80 1014.7
20260502104314 3 265 0.0 0.0 0.00 0.23 0.00 81 1014.7
20260502103825 3 265 0.0 0.0 0.00 0.23 0.00 80 1014.7
20260502103315 3 265 0.0 0.0 0.00 0.23 0.00 80 1014.7
20260502102828 3 265 0.0 0.0 0.00 0.23 0.00 80 1014.7
20260502102318 3 265 0.0 0.0 0.00 0.23 0.00 80 1014.7
20260502101814 3 265 0.0 0.0 0.00 0.23 0.00 80 1014.7
20260502101330 3 265 0.0 0.0 0.00 0.23 0.00 80 1014.7
20260502100852 3 265 0.0 0.0 0.00 0.23 0.00 80 1014.7
20260502100340 3 265 0.0 0.0 0.00 0.36 0.00 80 1014.6
20260502091332 3 265 0.0 0.0 0.00 0.36 0.00 79 1014.4
20260502090816 3 265 0.0 8.0 0.00 0.36 0.00 79 1014.4
20260502090327 3 265 0.0 8.0 0.00 0.38 0.00 79 1014.5
20260502071337 4 262 1.6 12.9 0.00 0.41 0.00 74 1014.0
20260502070837 4 262 4.8 14.5 0.00 0.41 0.00 74 1014.0
20260502070323 4 261 3.2 14.5 0.00 0.48 0.00 74 1014.0
20260502065830 4 261 6.4 14.5 0.00 0.48 0.00 74 1014.0
20260502065316 4 259 4.8 14.5 0.00 0.48 0.00 74 1014.0
20260502064821 4 259 1.6 14.5 0.00 0.48 0.00 74 1014.1
20260502064332 5 269 6.4 17.7 0.00 0.48 0.00 74 1014.1
20260502063822 5 259 9.7 17.7 0.00 0.48 0.00 75 1014.1
20260502063333 5 254 8.0 16.1 0.00 0.48 0.00 75 1014.1
20260502062850 5 257 6.4 16.1 0.00 0.48 0.00 76 1014.1
20260502062319 5 263 3.2 14.5 0.00 0.48 0.00 77 1014.1
20260502061847 5 273 4.8 17.7 0.00 0.48 0.00 77 1014.1
20260502061330 5 257 6.4 14.5 0.00 0.48 0.00 77 1014.1
20260502060821 5 263 6.4 12.9 0.00 0.48 0.00 77 1014.1
20260502060340 5 261 3.2 9.7 0.00 0.48 0.00 77 1014.2
20260502055828 5 261 4.8 12.9 0.00 0.48 0.00 77 1014.2
20260502055335 5 261 1.6 12.9 0.00 0.48 0.00 77 1014.2
20260502054820 5 259 3.2 14.5 0.00 0.48 0.00 77 1014.2
20260502054326 5 260 6.4 14.5 0.00 0.48 0.00 77 1014.2
20260502053811 5 261 3.2 11.3 0.00 0.48 0.00 77 1014.2
20260502053318 5 261 1.6 8.0 0.00 0.48 0.00 78 1014.2
20260502052843 5 261 0.0 8.0 0.00 0.48 0.00 78 1014.2
20260502052328 5 261 0.0 8.0 0.00 0.48 0.00 78 1014.2
20260502051811 5 261 0.0 9.7 0.00 0.48 0.00 78 1014.4
20260502051320 5 261 1.6 12.9 0.00 0.48 0.00 79 1014.4
20260502050831 5 270 1.6 11.3 0.00 0.48 0.00 80 1014.4
20260502050320 5 270 4.8 11.3 0.00 0.48 0.00 80 1014.4
20260502045839 5 284 0.0 6.4 0.00 0.48 0.00 80 1014.4
20260502045344 5 284 0.0 6.4 0.00 0.48 0.00 81 1014.4
20260502044832 5 284 0.0 11.3 0.00 0.48 0.00 81 1014.3
20260502044318 5 284 3.2 11.3 0.00 0.48 0.00 81 1014.3
20260502043831 5 285 1.6 8.0 0.00 0.48 0.00 82 1014.3
20260502043317 5 285 0.0 6.4 0.00 0.48 0.00 82 1014.4
20260502042825 5 285 0.0 3.2 0.00 0.48 0.00 82 1014.4
20260502042316 5 285 0.0 3.2 0.00 0.48 0.00 82 1014.4
20260502041834 5 285 0.0 3.2 0.00 0.48 0.00 82 1014.2
20260502041342 5 285 0.0 1.6 0.00 0.48 0.00 82 1014.2
20260502040827 5 285 0.0 3.2 0.00 0.48 0.00 81 1014.2
20260502040314 5 285 0.0 3.2 0.00 0.48 0.48 81 1014.0
20260502035827 5 285 0.0 0.0 0.00 0.48 0.48 81 1014.0
20260502035318 5 285 0.0 0.0 0.00 0.48 0.48 81 1014.0
20260502034824 5 285 0.0 0.0 0.00 0.48 0.48 81 1014.0
20260502034321 6 285 0.0 0.0 0.00 0.48 0.48 81 1014.0
20260502033850 6 285 0.0 0.0 0.00 0.48 0.48 81 1014.0
20260502033320 6 285 0.0 0.0 0.00 0.48 0.48 81 1014.0
20260502032818 6 285 0.0 0.0 0.00 0.48 0.48 81 1014.0
20260502032315 6 285 0.0 0.0 0.00 0.48 0.48 81 1014.0
20260502031859 6 285 0.0 0.0 0.00 0.48 0.48 81 1014.0
20260502031326 6 285 0.0 1.6 0.00 0.48 0.48 81 1014.0
20260502030822 6 285 0.0 1.6 0.00 0.48 0.48 81 1014.0
20260502030350 6 285 0.0 1.6 0.00 0.48 0.48 81 1013.9
20260502025827 6 285 0.0 1.6 0.00 0.48 0.48 81 1013.9
20260502025324 6 285 0.0 0.0 0.00 0.48 0.48 81 1013.9
20260502024849 6 285 0.0 0.0 0.00 0.48 0.48 81 1013.9
20260502024338 6 285 0.0 0.0 0.00 0.48 0.48 81 1013.9
20260502023834 6 285 0.0 0.0 0.00 0.48 0.48 80 1013.9
20260502023323 6 285 0.0 0.0 0.00 0.48 0.48 80 1013.7
20260502022830 6 285 0.0 0.0 0.00 0.48 0.48 80 1013.7
20260502022323 6 285 0.0 0.0 0.00 0.48 0.48 80 1013.7
20260502021848 6 285 0.0 0.0 0.00 0.48 0.48 80 1013.5
20260502021315 6 285 0.0 0.0 0.00 0.48 0.48 80 1013.5
20260502020827 6 285 0.0 0.0 0.00 0.48 0.48 80 1013.5
20260502020347 6 285 0.0 0.0 0.00 0.48 0.48 80 1013.4
20260502015835 6 285 0.0 0.0 0.00 0.48 0.48 80 1013.4
20260502015320 6 285 0.0 8.0 0.00 0.48 0.48 81 1013.4
20260502014826 6 285 1.6 8.0 0.00 0.48 0.48 81 1013.2
20260502014317 6 285 0.0 0.0 0.00 0.48 0.48 81 1013.2
20260502013832 6 285 0.0 6.4 0.00 0.48 0.48 81 1013.2
20260502013323 6 285 0.0 0.0 0.00 0.48 0.48 81 1013.0
20260502012841 6 285 0.0 0.0 0.00 0.48 0.48 81 1013.0
20260502012316 6 285 0.0 0.0 0.00 0.48 0.48 81 1013.0
20260502011816 6 285 0.0 0.0 0.00 0.48 0.48 80 1012.9
20260502011322 6 285 0.0 0.0 0.00 0.48 0.48 80 1012.9
20260502010827 6 285 0.0 0.0 0.00 0.48 0.48 80 1012.9
20260502010315 6 285 0.0 0.0 0.00 0.48 0.48 79 1012.8
20260502005824 6 285 0.0 0.0 0.00 0.48 0.48 79 1012.8
20260502005324 6 285 0.0 0.0 0.00 0.48 0.48 79 1012.8
20260502004811 6 285 0.0 0.0 0.00 0.48 0.48 79 1012.7
20260502004322 6 285 0.0 0.0 0.03 0.48 0.48 78 1012.7
20260502003832 6 285 0.0 0.0 0.03 0.48 0.48 78 1012.7
20260502003326 6 285 0.0 0.0 0.03 0.48 0.48 78 1012.6
20260502002833 6 285 0.0 0.0 0.03 0.48 0.48 78 1012.6
20260502002324 6 285 0.0 1.6 0.03 0.48 0.48 77 1012.6
20260502001836 7 285 0.0 6.4 0.03 0.48 0.48 78 1012.7
20260502001332 6 285 0.0 11.3 0.03 0.48 0.48 78 1012.7
20260502000842 6 285 1.6 14.5 0.03 0.48 0.48 77 1012.7
20260502000327 7 283 3.2 14.5 0.03 0.48 0.48 78 1012.5
20260501235816 7 292 6.4 14.5 0.03 0.48 0.48 77 1012.5
20260501235314 7 280 3.2 37.0 0.03 0.48 0.48 75 1012.5
20260501234826 7 288 11.3 37.0 0.03 0.48 0.48 73 1012.1
20260501234339 8 267 20.9 32.2 0.00 0.46 0.46 70 1012.1